Weather in Fominskoye

Russia / Vologda Oblast     59°43′00″N   42°04′41″E
temp.,
°C
wind,
m/s
gust,
m/s
humid.,
%
clouds,
%
prec.,
mm/h
press.,
hPa
HPBL,
m
11 may, tue
tue1100:00+5wsw116799 0.0 102910
03:00+4ssw117124 0.0 103010
06:00+7ssw12665 0.0 103083
09:00+13ssw234944 0.0 1031480
12:00+17ssw224313 0.0 1030888
15:00+19s124495 0.0 10291145
18:00+18sse235848 0.0 1029163
21:00+12sse22782 0.0 102917
12 may, wed
wed1200:00+9s11815 0.0 103010
03:00+8s11823 0.0 103011
06:00+10s11725 0.0 103060
09:00+16sse12495 0.0 1030421
12:00+20sse22350 0.0 1028902
15:00+22sse12335 0.0 10271196
18:00+21e11540 0.0 102634
21:00+14e22760 0.0 102615
13 may, thu
thu1300:00+13ese228623 0.0 102629
03:00+12se2294100 0.0 102632
06:00+15se2685100 0.0 1025191
09:00+19sse376484 0.0 1025696
12:00+21sse485273 0.0 10241110
15:00+23sse594653 0.0 10221838
18:00+21sse37605 0.0 1020932
21:00+15se3986100 0.6 1019188
14 may, fri
fri1400:00+14se269388 0.1 1019147
03:00+13sse3897100 0.4 1018289
06:00+14ssw2695100 0.1 1019361
09:00+17ssw347521 0.1 1019834
12:00+21ssw355297 0.0 10181586
15:00+21ssw4648100 0.0 10181940
18:00+19ssw2566100 0.0 1017210
21:00+14s228320 0.0 101711
15 may, sat
sat1500:00+12s22915 0.0 101721
03:00+12se2395100 0.0 101750
06:00+14e2587100 0.0 1014162
09:00+20se4867100 0.0 1013682
12:00+22sse587188 1.1 10121103
15:00+23sse377251 3.4 10101121
18:00+20sw3679100 3.3 1008144
21:00+17sw41293100 8.3 1007779